www.pogodaiklimat.ru

Погода и климат >> Архив погоды >> Хорватия >> Дарувар


ПОГОДА в Даруваре

  • Прогноз погоды в Даруваре
  • Монитор погоды в Даруваре

АРХИВ ПОГОДЫ в Даруваре

Время (UTC), дата Ветер
(напр.,м/с)
 
Видим.   Явления Облачность Т
(С)
Тd
(С)
f
(%)
Тe
(С)
Тes
(С)
Комфортность P
(гПа)
Po
(гПа)
Тmin
(С)
Tmax
(С)
R
(мм)
R24
(мм)
S
(см)
10 16.05 СВ 2 15 км 10/10 1000 м
[Cu Sc]
+9.7 +6.4 80 +8 +8 1015.4 996.7
11 16.05 С 1 15 км 10/10 1000 м
[Cu Sc]
+10.0 +6.5 79 +10 +10 1015.3 996.7
12 16.05 С 2 15 км {морось} 10/10 1000 м
[Cu Sc]
+9.9 +6.2 78 +8 +8 1015.2 996.5 0.1
13 16.05 С 2 15 км 10/10 1000 м
[Cu Sc]
+11.3 +7.3 76 +10 +10 1014.6 996.1
14 16.05 н/о н/о +11.6 +7.8 77 1015.2 995.6
15 16.05 н/о н/о +11.4 +7.4 76 1015.1 995.5
16 16.05 н/о н/о +11.4 +7.2 75 1015.0 995.4
17 16.05 С 1 н/о н/о +10.9 +7.7 81 +11 +11 1015.2 995.5
18 16.05 СВ 1 10 км слаб. морось 10/10 1000 м
[Cu Sc]
+10.3 +7.2 81 +10 +10 1014.3 995.7 +11.9 0.1
19 16.05 В 1 10 км в посл. час морось 10/10 1000 м
[Cu Sc]
+9.8 +7.5 86 +9 +9 1014.6 996.0
20 16.05 ЮВ 1 10 км слаб. морось 10/10 1000 м
[Cu Sc]
+9.3 +7.9 91 +9 +9 1014.8 996.1
21 16.05 штиль 0 н/о н/о +9.3 +8.3 93 +8 +8 1015.9 996.1
00 17.05 штиль 0 н/о н/о +9.2 +8.4 95 +8 +8 1014.8 995.0
03 17.05 штиль 0 н/о н/о +8.8 +8.3 97
04 17.05 штиль 0 н/о н/о +8.9 +8.4 97 +8 +8 1014.5 994.7
05 17.05 штиль 0 н/о н/о +9.2 +8.7 97 +8 +8 1014.8 995.0
06 17.05 Ю 1 20 км 10/10 1000 м
[Sc]
+9.6 +8.5 93 +9 +9 1013.5 994.9 +9.0
07 17.05 штиль 0 20 км 10/10 1000 м
[Sc]
+11.4 +6.1 70 +11 +11 1013.6 995.1
08 17.05 Ю 1 20 км 10/10 1000 м
[Sc]
+12.6 +5.1 60 +13 +13 1013.6 995.1
09 17.05 С 2 20 км 10/10 1000 м
[Sc]
+13.8 +6.1 60 +13 +13 1013.5 995.1
10 17.05 СЗ 1 20 км 10/10 1000 м
[Sc]
+14.2 +5.3 55 +15 +15 1013.5 995.1
11 17.05 Ю 1 20 км 9/9 1000 м
[Sc]
+15.6 +5.7 52 +16 +18 1013.1 994.8
12 17.05 С 2 20 км 8/8 1000 м
[Cu Sc]
+17.0 +6.4 50 +17 +21 1012.1 994.0
13 17.05 С 2 20 км 8/8 1000 м
[Cu Sc]
+17.4 +6.9 50 +18 +21 1012.1 994.0
14 17.05 н/о н/о +18.6 +10.0 57 1012.5 993.4
15 17.05 С 3 н/о н/о +18.2 +10.4 60 +19 +19 1012.3 993.2
16 17.05 СВ 4 н/о н/о +18.1 +9.8 58 +18 +18 1011.8 992.7
17 17.05 СВ 3 н/о н/о +16.7 +10.4 66 +17 +17 1011.9 992.7
18 17.05 штиль 0 20 км 6/0
[Ac trans]
+15.2 +9.1 67 +15 +15 1011.1 992.9 +19.0
19 17.05 СВ 2 20 км 6/0
[Ac trans]
+13.6 +9.3 75 +13 +13 1011.2 992.9
20 17.05 ЮВ 1 20 км 3/0
[Ac trans]
+11.4 +9.4 88 +11 +11 1011.4 992.9
21 17.05 штиль 0 н/о н/о +10.1 +8.8 92 +9 +9 1013.0 993.3
00 18.05 штиль 0 н/о н/о +7.4 +6.9 97 +6 +6 1012.8 992.9
03 18.05 штиль 0 н/о н/о +5.8 +5.3 97 +5 +5 1011.6 991.6
04 18.05 штиль 0 н/о н/о +5.3 +4.9 97 +4 +4 1011.8 991.8
05 18.05 З 1 н/о н/о +8.1 +7.9 99 +7 +7 1011.5 991.7
06 18.05 З 1 10 км 6/0
[Ac trans]
+9.8 +9.4 97 +9 +12 1010.0 991.5 +5.5
07 18.05 З 2 15 км 9/0
[Ac trans]
+13.4 +10.2 81 +13 +16 1010.3 992.0
08 18.05 З 2 20 км 9/0
[Ac As]
+14.4 +10.5 77 +14 +18 1010.3 992.0
09 18.05 СЗ 2 20 км 8/0
[Ac As]
+16.2 +9.7 65 +16 +23 1010.1 992.0
10 18.05 С 2 20 км 5/0
[Ac trans]
+19.2 +10.7 58 +21 +33 комфорт 1009.6 991.7
11 18.05 СЗ 3 20 км 5/5 1000 м
[Cu hum]
+21.0 +10.5 51 +23 +31 комфорт 1008.8 991.0
12 18.05 С 3 20 км 5/5 1000 м
[Cu hum]
+22.0 +11.1 50 +24 +31 комфорт 1008.4 990.6
13 18.05 С 4 20 км 6/6 1000 м
[Cu hum]
+22.6 +11.5 49 +25 +29 комфорт 1007.7 990.0
14 18.05 С 4 н/о н/о +23.2 +13.4 54 +26 +26 жарко 1007.5 988.8
15 18.05 СВ 4 н/о н/о +21.9 +12.8 56 +24 +24 комфорт 1007.3 988.5
17 18.05 Ю 1 н/о н/о +16.6 +14.8 89 +17 +17 1008.6 989.4
18 18.05 С 1 20 км в посл. час гроза 9/0
[Ac As]
+16.2 +14.6 90 +17 +17 1007.6 989.5 +24.0 0.7
19 18.05 ЮВ 1 15 км слаб. дождь {гроза} 10/10 1000 м
[Sc]
+15.4 +14.6 95 +16 +16 1008.1 990.0
20 18.05 Ю 2 10 км слаб. дождь {гроза} 10/0
[As op]
+14.6 +13.6 94 +14 +14 1009.2 991.0
21 18.05 ЮЗ 1 н/о н/о +14.3 +13.3 94 +15 +15 1010.4 991.0
00 19.05 В 1 н/о н/о +13.1 +12.7 97 +13 +13 1008.7 989.3
03 19.05 штиль 0 н/о н/о +10.6 +10.1 97 +10 +10 1008.5 988.9
04 19.05 С 1 н/о н/о +9.9 +9.5 97 +9 +9 1008.4 988.8
05 19.05 штиль 0 н/о н/о +11.0 +10.6 97 +10 +10 1008.4 988.9
06 19.05 З 1 20 км 3/1 1000 м
[Cu hum Ci fib]
+12.6 +11.0 90 +13 +17 1007.3 989.0 +9.9 6
07 19.05 СЗ 2 20 км 8/8 1000 м
[Cu Sc]
+14.9 +12.5 86 +15 +16 1006.7 988.6
08 19.05 СЗ 2 20 км 8/8 1000 м
[Cu Sc]
+16.3 +12.6 79 +16 +19 1006.9 988.8
09 19.05 СЗ 2 20 км 5/5 1000 м
[Cu Sc]
+17.9 +12.6 71 +18 +26 1005.9 988.0
10 19.05 С 2 20 км 9/9 1000 м
[Cu Sc]
+19.5 +12.9 66 +22 +23 комфорт 1005.7 987.9
11 19.05 З 2 20 км 10/10 1000 м
[Cu Sc]
+18.9 +13.9 73 +20 +20 1005.5 987.6
12 19.05 З 2 20 км 10/10 1000 м
[Cu Sc]
+19.5 +13.7 69 +22 +22 комфорт 1004.9 987.1
13 19.05 СВ 2 20 км 10/10 1000 м
[Cu Sc]
+20.2 +12.6 62 +23 +23 комфорт 1004.9 987.1
14 19.05 З 1 н/о н/о +18.3 +13.4 73 +20 +20 1005.7 986.7
15 19.05 СЗ 1 н/о н/о +18.5 +13.6 73 +20 +20 1005.7 986.7
16 19.05 СВ 2 н/о н/о +19.5 +13.7 69 +22 +22 комфорт 1004.5 985.6
17 19.05 СВ 4 н/о н/о +18.1 +13.0 72 +18 +18 1004.1 985.1
18 19.05 ЮЗ 1 20 км 6/6 1000 м
[Cu Sc]
+17.3 +13.5 78 +18 +18 1003.3 985.4 +20.6
19 19.05 С 1 20 км 8/8 1000 м
[Cu Sc]
+15.7 +13.5 87 +16 +16 1002.9 984.9
20 19.05 ЮВ 1 20 км 10/10 1000 м
[Cu Sc]
+14.5 +12.8 90 +15 +15 1003.4 985.3
21 19.05 СЗ 1 н/о н/о +14.0 +12.5 91 +14 +14 1005.1 985.8
00 20.05 ЮВ 1 н/о н/о +13.5 +12.1 91 +14 +14 1005.9 986.6
03 20.05 ЮВ 1 н/о н/о +12.2 +11.5 95 +12 +12 1005.0 985.6
04 20.05 ЮВ 1 н/о н/о +12.2 +11.3 94 +12 +12 1004.9 985.5
05 20.05 Ю 2 н/о н/о +13.5 +11.4 87 +13 +13 1005.2 985.9
06 20.05 Ю 3 20 км {дождь} 6/6 1000 м
[Cu Sc]
+15.3 +10.6 74 +15 +16 1004.5 986.4 +11.9 0.1
07 20.05 Ю 3 20 км 8/8 1000 м
[Cu Sc]
+16.2 +10.1 67 +16 +17 1004.7 986.7
08 20.05 Ю 4 20 км 8/8 1000 м
[Cu Sc]
+17.1 +9.5 61 +17 +18 1005.5 987.5
09 20.05 Ю 4 20 км 5/3 1000 м
[Cu hum Ac trans Ci fib]
+17.9 +10.3 61 +18 +24 1006.0 988.0
10 20.05 Ю 4 20 км 6/6 1000 м
[Cu Sc]
+19.8 +9.6 52 +21 +26 комфорт 1006.1 988.2
11 20.05 Ю 3 20 км слаб. дождь 6/6 1000 м
[Cu Sc]
+17.7 +13.6 77 +18 +24 1006.4 988.4
12 20.05 ЮВ 3 20 км в посл. час дождь 8/8 1000 м
[Cu Sc]
+19.8 +10.2 54 +21 +24 комфорт 1006.2 988.3 0.9
13 20.05 Ю 3 20 км 8/8 1000 м
[Cu Sc]
+20.2 +9.5 50 +22 +24 комфорт 1005.8 988.0
14 20.05 ЮЗ 3 н/о н/о +21.5 +11.3 52 +23 +23 комфорт 1006.6 987.8
15 20.05 Ю 1 н/о н/о +16.5 +12.9 79 +17 +17 1007.5 988.3
16 20.05 Ю 2 н/о н/о +18.5 +11.4 63 +20 +20 1007.1 988.1
17 20.05 Ю 2 н/о н/о +14.7 +12.6 87 +14 +14 1007.6 988.3
18 20.05 ЮВ 2 20 км {гроза, ливн. осадки} 6/6 1000 м
[Cu Sc]
+14.4 +12.2 87 +14 +14 1006.8 988.6 +21.4 4
19 20.05 З 2 20 км 8/8 1000 м
[Cu Sc]
+14.0 +11.9 87 +13 +13 1007.3 989.1
20 20.05 ЮВ 2 20 км 3/3 1000 м
[Cu med, cong]
+12.5 +11.3 92 +12 +12 1007.8 989.5
21 20.05 Ю 2 н/о н/о +11.0 +9.3 89 +10 +10 1009.4 989.8
00 21.05 ЮВ 2 н/о н/о +10.9 +7.8 81 +10 +10 1009.4 989.8
03 21.05 ЮВ 2 н/о н/о +11.7 +8.1 79 +11 +11 1009.1 989.6
04 21.05 ЮВ 1 н/о н/о +11.2 +8.1 81 +11 +11 1009.2 989.7
05 21.05 Ю 2 н/о н/о +12.6 +8.7 77 +12 +12 1009.4 989.9
06 21.05 Ю 4 20 км 8/8 1000 м
[Sc]
+14.4 +6.7 60 +13 +14 1008.2 990.0 +10.0
07 21.05 Ю 4 20 км 6/0
[Ac trans]
+17.0 +7.7 54 +17 +20 1008.3 990.2
08 21.05 Ю 4 20 км 6/0
[Ac trans]
+18.0 +6.3 46 +18 +23 1008.7 990.7
09 21.05 Ю 4 20 км 8/0
[Ac As]
+19.2 +7.0 45 +20 +24 1009.0 991.0
10 21.05 Ю 4 20 км 9/9 1000 м
[Cu Sc]
+18.4 +6.6 46 +19 +20 1009.0 991.0
11 21.05 ЮЗ 3 20 км в посл. час ливневой дождь 9/9 1000 м
[Cu Sc]
+15.8 +11.3 75 +15 +17 1009.9 991.7
12 21.05 ЮЗ 4 20 км {ливн. осадки} 9/9 1000 м
[Cu Sc]
+18.2 +9.8 58 +18 +19 1009.7 991.7 1
13 21.05 Ю 5 20 км {ливн. осадки} 9/9 1000 м
[Cu Sc]
+17.2 +8.4 56 +17 +17 1010.4 992.3
14 21.05 Ю 3 н/о н/о +15.5 +11.4 77 +15 +15 1012.1 992.8
15 21.05 Ю 5 н/о н/о +14.2 +12.1 87 +12 +12 1012.2 992.8
16 21.05 Ю 2 н/о н/о +14.2 +11.8 85 +14 +14 1012.0 992.6
17 21.05 ЮВ 2 н/о н/о +14.0 +12.3 89 +13 +13 1011.9 992.5
18 21.05 Ю 2 20 км в посл. час дождь 8/8 1000 м
[Sc]
+13.6 +12.0 90 +13 +13 1010.7 992.4 +20.0 2
19 21.05 ЮВ 2 20 км {дождь} 8/8 1000 м
[Sc]
+13.4 +11.8 90 +13 +13 1011.1 992.8
20 21.05 ЮВ 2 20 км 5/5 1000 м
[Cu hum]
+12.8 +11.2 90 +12 +12 1011.5 993.1
21 21.05 Ю 2 н/о н/о +12.3 +10.8 91 +11 +11 1013.0 993.5
00 22.05 ЮВ 1 н/о н/о +12.7 +10.3 85 +13 +13 1013.0 993.5
03 22.05 Ю 2 н/о н/о +11.8 +9.8 88 +11 +11 1012.9 993.3
04 22.05 ЮВ 1 н/о н/о +11.9 +10.0 88 +12 +12 1013.2 993.6
05 22.05 Ю 2 н/о н/о +14.0 +10.7 80 +13 +13 1013.2 993.8
06 22.05 Ю 4 20 км 3/3 1000 м
[Cu hum]
+15.6 +10.3 71 +15 +17 1011.9 993.7 +11.5
07 22.05 ЮЗ 4 20 км 6/6 1000 м
[Cu hum]
+17.6 +10.9 65 +17 +20 1012.1 994.0
08 22.05 ЮЗ 4 20 км 9/9 1000 м
[Sc]
+19.2 +11.4 61 +20 +21 1012.0 994.0
09 22.05 З 4 20 км 6/6 1000 м
[Sc]
+20.0 +11.0 56 +22 +26 комфорт 1012.4 994.5
10 22.05 З 4 20 км 8/8 1000 м
[Sc]
+21.0 +10.3 50 +23 +25 комфорт 1012.7 994.8
11 22.05 З 3 20 км 8/8 1000 м
[Cu Sc]
+20.6 +10.2 51 +23 +26 комфорт 1012.6 994.7
12 22.05 З 3 20 км 9/9 1000 м
[Cu Sc]
+21.4 +9.1 45 +23 +24 комфорт 1012.3 994.4
13 22.05 З 4 20 км 6/6 1000 м
[Cu Sc]
+22.6 +10.0 45 +24 +28 комфорт 1011.8 994.0
14 22.05 З 4 н/о н/о +23.6 +11.0 45 +25 +25 комфорт 1012.6 993.8
15 22.05 ЮЗ 3 н/о н/о +23.7 +11.8 47 +25 +25 комфорт 1012.5 993.7
16 22.05 В 2 н/о н/о +18.2 +14.8 81 +19 +19 1013.1 993.9
17 22.05 ЮВ 3 н/о н/о +18.5 +14.5 78 +19 +19 1013.2 994.1
18 22.05 ЮВ 1 20 км {ливн. осадки, гроза} 6/6 1000 м
[Cu Sc]
+17.4 +14.0 80 +18 +18 1012.6 994.5 +24.0 0.6
19 22.05 СЗ 4 20 км слаб. дождь {гроза} 9/9 1000 м
[Cu Sc]
+16.6 +13.1 80 +16 +16 1014.2 996.0
20 22.05 ЮВ 2 10 км слаб. дождь {гроза} 10/0
[As op]
+14.2 +13.3 94 +14 +14 1014.6 996.3
21 22.05 ЮВ 1 н/о н/о +13.7 +12.7 94 +14 +14 1016.1 996.6
00 23.05 В 1 н/о н/о +13.1 +12.4 96 +13 +13 1016.8 997.2
03 23.05 штиль 0 н/о н/о +12.3 +11.6 95 +12 +12 1017.0 997.4
04 23.05 штиль 0 н/о н/о +12.4 +11.8 96 +12 +12 1016.9 997.3
05 23.05 Ю 1 н/о н/о +13.3 +12.4 94 +13 +13 1017.1 997.5
06 23.05 Ю 1 20 км 8/0
[Ac As]
+13.7 +12.3 91 +14 +16 1016.1 997.7 +11.8 4
07 23.05 ЮВ 1 20 км 10/10 1000 м
[Cu Sc]
+15.7 +11.6 77 +16 +16 1016.3 998.0
08 23.05 С 1 20 км слаб. дождь 9/9 1000 м
[Cu Sc]
+17.1 +11.3 69 +18 +19 1016.6 998.4
09 23.05 СЗ 1 20 км в посл. час дождь 10/10 1000 м
[Cu Sc]
+17.8 +11.1 65 +19 +19 1016.6 998.4
10 23.05 СЗ 2 20 км 8/8 1000 м
[Cu Sc]
+19.8 +10.4 55 +22 +25 комфорт 1016.1 998.1

 

Местоположение метеостанции Дарувар (Хорватия): широта 45.60 долгота 17.23 высота над уровнем моря 161 м.

В архиве по умолчанию представлена погода в Даруваре за последнюю неделю. Архивные данные за месяц целиком и за предыдущие месяцы, начиная с января 2011 года, Вы можете получить, выбрав интересующий диапазон дат из раскрывающегося списка и нажав кнопку "Ввод!".


*Определитесь, кто Вы:
робот инопланетянин человек

Внимание! Время в таблицах - всемирное. Для получения местного времени необходимо прибавить поправку, которая равна 1 ч.

Смотрите также архив погоды в соседних городах и на ближайших метеорологических станциях:

Погода на Било-Горе (Хорватия) (31 км)
Погода в Бьеловаре (Хорватия) (33 км)
Погода в Сисаке (Хорватия) (68 км)
Погода в Крижевцах (Хорватия) (71 км)
Погода в Славонски-Броде (Хорватия) (77 км)
Погода в Пече (Венгрия) (89 км)
Погода в Баня-Луке (Босния и Герцеговина) (91 км)
Погода в Загреб аэропорту (Хорватия) (91 км)
Погода в Загребе (Хорватия) (96 км)
Погода в Надьканиже (Венгрия) (97 км)

Пояснения к столбцам:

Ветер - указаны скорость ветра в м/с - средняя за 10 мин, порывы в срок и между сроками (в фигурных скобках) и направление, откуда дует ветер: С - северный, СВ - северо-восточный, В - восточный, ЮВ - юго-восточный, Ю - южный, ЮЗ - юго-западный, З - западный, СЗ - северо-западный.
Видимость - горизонтальная дальность видимости в метрах или километрах. При видимости от 1 до 10 км при отсутствии осадков обычно наблюдается дымка, при ухудшении видимости до 1 км и менее - туман. В сухую погоду видимость может ухудшаться дымом, пылью или мглою.
Явления - указаны атмосферные явления, наблюдавшиеся в срок или в последний час перед сроком; фигурными скобками обозначены явления, наблюдавшиеся между сроками (за 1-3 часа до срока); квадратными скобками обозначены град или гололедные отложения с указанием их диаметра в мм.
Облачность - указаны через наклонную черту общая и нижняя облачность в баллах и высота нижней границы облаков в метрах; квадратными скобками обозначены формы облаков: Ci - перистые, Cs - перисто-слоистые, Cc - перисто-кучевые, Ac - высококучевые, As - высокослоистые, Sc - слоисто-кучевые, Ns - слоисто-дождевые, Cu - кучевые, Cb - кучево-дождевые. Подробнее классификацию облаков см. в Атласе облаков (PDF).
T - Температура воздуха - температура, измеренная на высоте 2 м над землей.
Td - Температура точки росы - температура, при понижении до которой содержащийся в воздухе водяной пар достигнет насыщения.
f - Относительная влажность воздуха - влажноcть воздуха, измеренная на высоте 2 м над землей.
Te - Эффективная температура - температура, которую ощущает одетый по сезону человек в тени. Характеристика душности погоды. При расчете учитывается влияние влажности воздуха и скорости ветра на теплоощущения человека.
Tes - Эффективная температура на солнце - температура, которую ощущает человек, с поправкой на солнечный нагрев. Характеристика знойности погоды. Зависит от высоты солнца над горизонтом, облачности и скорости ветра. Ночью, в пасмурную погоду, а также при ветре 12 м/с и более поправка равна нулю.
P - Атмосферное давление - приведенное к уровню моря атмосферное давление.
Po - Атмосферное давление - измеренное на уровне метеостанции атмосферное давление.
Tmin - Минимальная температура - минимум температуры воздуха на высоте 2 м над землей.
Tmax - Максимальная температура - максимум температуры воздуха на высоте 2 м над землей.
R - Количество осадков - Количество выпавших осадков за период времени, мм. При наведении курсора мыши на число - период времени, за который выпало указанное количество осадков.
R24 - Количество осадков - Количество выпавших осадков за 24 часа, мм.
S - Снежный покров - Высота снежного покрова, см. При наведении курсора мыши на число - состояние снежного покрова и степень покрытия местности в баллах.